{"data":{"norad_id":66391,"intl_designator":"2025-257M","name":"STARLINK-35656","alt_names":[],"object_type":"PAYLOAD","status":"ACTIVE","operator":null,"country":"US","launch_date":"2025-11-09","launch_site_code":"AFETR","launch_vehicle":null,"mission":null,"orbit_class":"UNKNOWN","rcs_meters":null,"size_class":null,"mass_kg":null,"dimensions":null,"purposes":["comms"],"wikipedia_slug":null,"has_3d_model":false,"image_url":null,"decayed_at":null,"tle_current":{"epoch":"2026-05-24T17:13:23.751264Z","epoch_age_seconds":100238,"freshness":"FRESH","line1":"1 66391U 25257M   26144.71763601  .00014265  00000+0  49281-3 0  9998","line2":"2 66391  53.1575 226.7139 0000916  94.2045 265.9061 15.30200941 31438","mean_motion":15.30200941,"eccentricity":9.16e-5,"inclination_deg":53.1575,"raan_deg":226.7139,"arg_perigee_deg":94.2045,"mean_anomaly_deg":265.9061,"bstar":0.00049281,"rev_number":3143,"period_min":94.105287836181,"perigee_km":474.58449297219,"apogee_km":475.84002655657,"semimajor_km":6853.3492597644,"source":"CELESTRAK","updated_at":"2026-05-25T13:38:21.202480Z"}}}